Météo par heure à Justynow

Ce jour, 17 Juin, Jeudi

Heure Température Précipitation Vent Pression Humidité
00:00 +13°C° 0 mm 2 m/s 750 mmHg 80%
01:00 +13°C° 0 mm 2 m/s 750 mmHg 82%
02:00 +13°C° 0 mm 2 m/s 750 mmHg 83%
03:00 +13°C° 0 mm 2 m/s 750 mmHg 84%
04:00 +13°C° 0 mm 2 m/s 750 mmHg 85%
05:00 +15°C° 0 mm 2 m/s 750 mmHg 80%
06:00 +17°C° 0 mm 2 m/s 751 mmHg 75%
07:00 +19°C° 0 mm 3 m/s 751 mmHg 69%
08:00 +20°C° 0 mm 3 m/s 751 mmHg 63%
09:00 +22°C° 0 mm 3 m/s 752 mmHg 57%
10:00 +24°C° 0 mm 3 m/s 752 mmHg 51%
11:00 +25°C° 0 mm 3 m/s 752 mmHg 49%
12:00 +25°C° 0 mm 3 m/s 751 mmHg 48%
13:00 +26°C° 0 mm 3 m/s 751 mmHg 46%
14:00 +26°C° 0 mm 3 m/s 751 mmHg 48%
15:00 +26°C° 0 mm 3 m/s 751 mmHg 49%
16:00 +26°C° 0 mm 3 m/s 751 mmHg 51%
17:00 +25°C° 0 mm 3 m/s 751 mmHg 59%
18:00 +22°C° 0 mm 3 m/s 751 mmHg 66%
19:00 +21°C° 0 mm 2 m/s 751 mmHg 74%
20:00 +20°C° 0 mm 3 m/s 751 mmHg 77%
21:00 +19°C° 0 mm 3 m/s 751 mmHg 80%
22:00 +17°C° 0 mm 3 m/s 751 mmHg 82%
23:00 +17°C° 0 mm 3 m/s 751 mmHg 84%

Demain, 18 Juin, Vendredi

Heure Température Précipitation Vent Pression Humidité
00:00 +17°C° 0 mm 3 m/s 751 mmHg 86%
01:00 +17°C° 0 mm 3 m/s 751 mmHg 88%
02:00 +16°C° 0 mm 3 m/s 751 mmHg 90%
03:00 +16°C° 0 mm 3 m/s 751 mmHg 91%
04:00 +16°C° 0 mm 3 m/s 751 mmHg 92%
05:00 +18°C° 0 mm 3 m/s 751 mmHg 86%
06:00 +20°C° 0 mm 4 m/s 751 mmHg 79%
07:00 +22°C° 0 mm 4 m/s 751 mmHg 72%
08:00 +23°C° 0 mm 4 m/s 751 mmHg 68%
09:00 +25°C° 0 mm 5 m/s 751 mmHg 64%
10:00 +26°C° 0 mm 5 m/s 751 mmHg 60%
11:00 +27°C° 0 mm 5 m/s 751 mmHg 57%
12:00 +27°C° 0 mm 4 m/s 751 mmHg 54%
13:00 +28°C° 0 mm 4 m/s 751 mmHg 52%
14:00 +28°C° 0 mm 4 m/s 750 mmHg 52%
15:00 +28°C° 0 mm 4 m/s 750 mmHg 53%
16:00 +28°C° 0 mm 4 m/s 750 mmHg 54%
17:00 +26°C° 0 mm 3 m/s 750 mmHg 61%
18:00 +25°C° 0 mm 3 m/s 750 mmHg 68%
19:00 +24°C° 0 mm 3 m/s 750 mmHg 75%
20:00 +21°C° 0 mm 3 m/s 750 mmHg 79%
21:00 +20°C° 0 mm 3 m/s 750 mmHg 83%
22:00 +19°C° 0 mm 3 m/s 750 mmHg 87%
23:00 +18°C° 0 mm 3 m/s 750 mmHg 88%

Après-demain, 19 Juin, Samedi

Heure Température Précipitation Vent Pression Humidité
00:00 +18°C° 0 mm 3 m/s 750 mmHg 88%
01:00 +18°C° 0 mm 3 m/s 750 mmHg 88%
02:00 +18°C° 0 mm 3 m/s 750 mmHg 90%
03:00 +18°C° 0 mm 3 m/s 750 mmHg 92%
04:00 +18°C° 0 mm 3 m/s 750 mmHg 94%
05:00 +19°C° 0 mm 3 m/s 750 mmHg 88%
06:00 +21°C° 0 mm 4 m/s 750 mmHg 83%
07:00 +23°C° 0 mm 4 m/s 750 mmHg 78%
08:00 +25°C° 0 mm 5 m/s 750 mmHg 73%
09:00 +26°C° 0 mm 5 m/s 750 mmHg 68%
10:00 +27°C° 0 mm 5 m/s 750 mmHg 63%
11:00 +28°C° 0 mm 5 m/s 750 mmHg 60%
12:00 +29°C° 0 mm 5 m/s 749 mmHg 57%
13:00 +29°C° 0 mm 5 m/s 749 mmHg 55%
14:00 +29°C° 0 mm 5 m/s 749 mmHg 55%
15:00 +29°C° 0 mm 4 m/s 749 mmHg 56%
16:00 +29°C° 0 mm 4 m/s 748 mmHg 56%
17:00 +28°C° 0 mm 4 m/s 748 mmHg 64%
18:00 +26°C° 0 mm 4 m/s 748 mmHg 72%
19:00 +25°C° 0 mm 4 m/s 748 mmHg 79%
20:00 +22°C° 0 mm 3 m/s 748 mmHg 82%
21:00 +21°C° 0 mm 3 m/s 748 mmHg 85%
22:00 +20°C° 0 mm 3 m/s 748 mmHg 88%
23:00 +20°C° 0 mm 3 m/s 748 mmHg 89%

20 Juin, Dimanche

Heure Température Précipitation Vent Pression Humidité
00:00 +19°C° 0 mm 3 m/s 748 mmHg 91%
01:00 +18°C° 0 mm 2 m/s 748 mmHg 92%
02:00 +18°C° 0 mm 2 m/s 748 mmHg 92%
03:00 +18°C° 0 mm 2 m/s 748 mmHg 92%
04:00 +18°C° 0 mm 3 m/s 748 mmHg 92%
05:00 +19°C° 0 mm 3 m/s 748 mmHg 86%
06:00 +21°C° 0 mm 3 m/s 748 mmHg 81%
07:00 +22°C° 0 mm 4 m/s 748 mmHg 75%
08:00 +25°C° 0 mm 4 m/s 748 mmHg 71%
09:00 +26°C° 0 mm 5 m/s 748 mmHg 67%
10:00 +27°C° 0 mm 5 m/s 748 mmHg 63%
11:00 +27°C° 0 mm 5 m/s 747 mmHg 62%
12:00 +27°C° 0 mm 5 m/s 747 mmHg 61%
13:00 +27°C° 0 mm 5 m/s 747 mmHg 60%
14:00 +28°C° 0 mm 4 m/s 746 mmHg 59%
15:00 +28°C° 0 mm 4 m/s 746 mmHg 58%
16:00 +28°C° 0 mm 4 m/s 746 mmHg 57%
17:00 +27°C° 0 mm 4 m/s 746 mmHg 64%
18:00 +26°C° 0 mm 4 m/s 746 mmHg 71%
19:00 +25°C° 0 mm 4 m/s 745 mmHg 77%
20:00 +23°C° 0 mm 4 m/s 745 mmHg 82%
21:00 +22°C° 0 mm 4 m/s 745 mmHg 86%
22:00 +21°C° 0 mm 4 m/s 745 mmHg 90%
23:00 +20°C° 0 mm 3 m/s 745 mmHg 92%

21 Juin, Lundi

Heure Température Précipitation Vent Pression Humidité
00:00 +20°C° 0 mm 3 m/s 745 mmHg 93%
01:00 +19°C° 0 mm 3 m/s 745 mmHg 95%
02:00 +19°C° 0 mm 3 m/s 745 mmHg 95%
03:00 +19°C° 0 mm 3 m/s 745 mmHg 95%
04:00 +19°C° 0 mm 3 m/s 745 mmHg 95%
05:00 +20°C° 0 mm 4 m/s 745 mmHg 88%
06:00 +22°C° 0 mm 5 m/s 745 mmHg 82%
07:00 +23°C° 0 mm 6 m/s 745 mmHg 76%
08:00 +24°C° 0 mm 6 m/s 744 mmHg 70%
09:00 +26°C° 0 mm 6 m/s 744 mmHg 64%
10:00 +27°C° 0 mm 6 m/s 744 mmHg 59%
11:00 +28°C° 0 mm 6 m/s 744 mmHg 56%
12:00 +29°C° 0 mm 6 m/s 744 mmHg 54%
13:00 +29°C° 0 mm 5 m/s 744 mmHg 51%
14:00 +29°C° 0 mm 5 m/s 744 mmHg 52%
15:00 +29°C° 0 mm 5 m/s 743 mmHg 53%
16:00 +29°C° 0 mm 4 m/s 743 mmHg 55%
17:00 +28°C° 0 mm 4 m/s 743 mmHg 61%
18:00 +26°C° 0 mm 4 m/s 743 mmHg 67%
19:00 +25°C° 0 mm 4 m/s 743 mmHg 74%
20:00 +24°C° 0 mm 3 m/s 743 mmHg 77%
21:00 +22°C° 0 mm 3 m/s 743 mmHg 81%
22:00 +21°C° 0 mm 3 m/s 742 mmHg 84%
23:00 +20°C° 0 mm 3 m/s 742 mmHg 87%

22 Juin, Mardi

Heure Température Précipitation Vent Pression Humidité
00:00 +20°C° 0 mm 3 m/s 742 mmHg 89%
01:00 +19°C° 0 mm 3 m/s 742 mmHg 92%
02:00 +19°C° 0 mm 3 m/s 742 mmHg 93%
03:00 +19°C° 0 mm 3 m/s 742 mmHg 93%
04:00 +19°C° 0 mm 3 m/s 742 mmHg 94%
05:00 +20°C° 0 mm 3 m/s 742 mmHg 88%
06:00 +22°C° 0 mm 4 m/s 742 mmHg 82%
07:00 +25°C° 0 mm 5 m/s 742 mmHg 75%
08:00 +26°C° 0 mm 5 m/s 742 mmHg 70%
09:00 +28°C° 0 mm 5 m/s 742 mmHg 65%
10:00 +29°C° 0 mm 5 m/s 742 mmHg 60%
11:00 +30°C° 0 mm 5 m/s 742 mmHg 57%
12:00 +32°C° 0 mm 5 m/s 742 mmHg 53%
13:00 +33°C° 0 mm 5 m/s 742 mmHg 50%
14:00 +32°C° 0 mm 5 m/s 742 mmHg 52%
15:00 +32°C° 0 mm 5 m/s 742 mmHg 54%
16:00 +32°C° 0 mm 5 m/s 742 mmHg 56%
17:00 +28°C° 1.5 mm 4 m/s 742 mmHg 67%
18:00 +25°C° 1.5 mm 3 m/s 743 mmHg 79%
19:00 +21°C° 1.5 mm 3 m/s 743 mmHg 91%
20:00 +21°C° 2.1 mm 2 m/s 743 mmHg 92%
21:00 +20°C° 2.1 mm 2 m/s 743 mmHg 94%
22:00 +21°C° 2.1 mm 1 m/s 743 mmHg 95%
23:00 +20°C° 0.2 mm 1 m/s 744 mmHg 95%
Voir plus

Nous avons besoin de votre consentement

Meteoprog et ses fournisseurs de services peuvent stocker et accéder à des données personnelles telles que des cookies, des identifiants d'appareils ou d'autres technologies similaires sur votre appareil et traiter ces données pour personnaliser le contenu et les publicités, ainsi que pour fournir des fonctionnalités de médias sociaux et analyser le trafic.

  • Stocker et/ou accéder à des informations sur votre appareil

    Des cookies, des identifiants d'appareils ou d'autres informations peuvent être stockés ou accessibles sur votre appareil aux fins indiquées ci-dessus.

  • Annonces et contenus personnalisés, mesure des annonces et des contenus, connaissance de l'audience et développement de produits

    Les annonces et le contenu peuvent être personnalisés en fonction d'un profil. D'autres données peuvent être ajoutées pour mieux personnaliser les annonces et le contenu. Les performances des publicités et du contenu peuvent être mesurées. Il est possible d'obtenir des informations sur le public qui a vu les publicités et le contenu. Ces données peuvent être utilisées pour développer ou améliorer l'expérience de l'utilisateur, les systèmes et les logiciels.

En cliquant sur "J'accepte", vous autorisez l'utilisation de cookies, des identifiants d'appareils, des balises web ou d'autres technologies similaires. Vos paramètres peuvent être modifiés dans le navigateur de votre appareil.

Dans certains cas, des intérêts légitimes peuvent être invoqués plutôt qu'un consentement. Vous pouvez en savoir plus à ce sujet dans notre Politique de confidentialité et de cookies.